Regional Weather Roundup
Issued by NWS

Home | Current Version | Previous Version | Text Only | Print | Product List | Glossary Off
Versions: 1 2 3 4 5 6 7 8 9 10 11 12 13 14 15 16 17 18 19 20 21 22 23 24 25 26 27 28 29 30 31 32 33 34 35 36 37 38 39 40 41 42 43 44 45 46 47 48 49 50

000
ASUS45 KBOU 210907
RWRCO

WEATHER ROUNDUP FOR COLORADO
NATIONAL WEATHER SERVICE DENVER/BOULDER CO
300 AM MDT SAT OCT 21 2017

NOTE: "FAIR" INDICATES FEW OR NO CLOUDS BELOW 12000 FEET WITH NO
SIGNIFICANT WEATHER AND/OR OBSTRUCTIONS TO VISIBILITY.

COZ001>005-013-030-031-211000-
...NORTHWEST COLORADO...

CITY           SKY/WX    TMP DP  RH WIND       PRES   REMARKS
CRAIG          CLOUDY    32  25  75 W3        30.01R
HAYDEN         CLOUDY    29  27  92 SW5       30.02R WCI  24
MEEKER         CLOUDY    33  31  92 CALM      30.01R
RABBIT EARS PA FOG       19  18  93 W14G21    29.95R VSB 3/4 WCI   6
STEAMBOAT SPGS CLOUDY    30  28  95 SW5       29.99R WCI  25
WALDEN         NOT AVBL
$$

COZ006>008-011-211000-
...WEST CENTRAL VALLEYS...

CITY           SKY/WX    TMP DP  RH WIND       PRES   REMARKS
GRAND JUNCTION FAIR      40  15  36 N3        29.96R
MONTROSE       CLOUDY    46  15  28 NW9G17    29.97R
EAGLE          LGT RAIN  35  31  85 E9        29.99R WCI  28
RIFLE          MOCLDY    39  31  72 W8        29.99R
DELTA          FAIR      48  19  31 W12G18    29.93R
NUCLA          CLOUDY    46  12  25 NW13G18   30.00R
$$

COZ017>023-064>068-211000-
...SOUTHWEST COLORADO...

CITY           SKY/WX    TMP DP  RH WIND       PRES   REMARKS
DURANGO        FAIR      48  31  51 W8        29.89R
CORTEZ         CLOUDY    48  21  34 N12G21    29.95R
PAGOSA SPRINGS FAIR      47  25  42 SW3       29.91R
TELLURIDE      CLOUDY    33  29  86 W6        30.03S WCI  28
WOLF CREEK PAS CLOUDY    28  23  80 SW13G20   30.05R WCI  18
$$

COZ009-010-012-014-032>034-037-058>063-211000-
...CENTRAL COLORADO...

CITY           SKY/WX    TMP DP  RH WIND       PRES   REMARKS
ASPEN          CLOUDY    32  29  88 W5        29.97S WCI  27
BUENA VISTA    CLOUDY    39  30  69 NW17G26   29.84R
COPPER MTN     CLOUDY    23  19  86 MISG      29.94S
BERTHOUD PASS  CLOUDY    14   5  67 NW44G53   29.83F WCI -10
COTTONWOOD PAS CLOUDY    36  32  87 NW13G21   29.87R
GUNNISON       MOCLDY    36  32  85 N7        29.92R
KREMMLING      MOCLDY    36  30  80 SW5       29.98R
LEADVILLE      LGT SNOW  25  20  81 W20       29.93R WCI  11
MONARCH PASS   CLOUDY    27  27 100 W46       29.98F WCI   7
SALIDA         MOCLDY    45  35  69 W17       29.89R
SUNLIGHT       CLOUDY    21  19  93 MISG      30.02R FOG
WILKERSON PASS MOCLDY    30  27  86 W14G25    29.88F WCI  20
$$

COZ069>075-211000-
...SAN LUIS VALLEY/SANGRE DE CRISTO MOUNTAINS...

CITY           SKY/WX    TMP DP  RH WIND       PRES   REMARKS
ALAMOSA        FAIR      45  29  53 NW12      29.83R
DEL NORTE      FAIR      44  27  50 W12       29.84S
LA VETA PASS   CLOUDY    39  27  60 S22G47    29.96R
SAGUACHE       FAIR      37  36  93 NW10      29.86F
$$

COZ035-036-038>040-211000-
...NORTHERN COLORADO FRONT RANGE...

CITY           SKY/WX    TMP DP  RH WIND       PRES   REMARKS
DENVER INTL AP LGT RAIN  53  29  39 W12       29.66S
DMNS CITY PARK   N/A     53  24  32 W7G21     29.66R
AURORA         CLOUDY    51  34  52 W9        29.69R
FRONT RANGE AP LGT RAIN  50  36  57 SE3       29.67F
ERIE MUNI ARPT CLOUDY    53  30  42 S3        29.69R
BOULDER MUN AP MOCLDY    54  28  37 CALM      29.63R
CENTENNIAL     DRIZZLE   50  34  54 N6        29.68R
BROOMFIELD     MOCLDY    52  23  32 W30G41    29.67R
FORT COLLINS   CLOUDY    50  26  39 N16       29.64R
LONGMONT       CLOUDY    58  23  26 W25G35    29.63S
$$

COZ041-046-047-076>085-087-088-211000-
...PIKES PEAK/PALMER DIVIDE AND SOUTHERN FOOTHILLS...

CITY           SKY/WX    TMP DP  RH WIND       PRES   REMARKS
COLO. SPRINGS  MOCLDY    56  33  42 W15       29.66R
A. F. ACADEMY  LGT RAIN  52  34  50 NW16G28   29.72R
SCHRIEVER AFB  MOCLDY    54  32  43 W16G31    29.67R
CHEYENNE MTN   LGT RAIN  50  33  51 N17G35    29.63F
ELLICOTT         N/A      1   1 100 W24G32    29.66R WCI -22
FALCON         CLOUDY    54  29  38 W29G47    29.72R
FORT CARSON    FAIR      55  32  41 SW16G31   29.66R
LIMON          FAIR      48  33  56 N22       29.64R
MONUMENT HILL  CLOUDY    46  28  49 N10G25    29.75R
CANON CITY     MOCLDY    57  36  44 NW16G28   29.66F
WALSENBURG     FAIR      59  30  33 SW15G23   29.70S
TRINIDAD       FAIR      61  27  27 SW17G28   29.69R
$$

COZ042>045-048>051-090-091-211000-
...NORTHEAST COLORADO...

CITY           SKY/WX    TMP DP  RH WIND       PRES   REMARKS
GREELEY ARPT   CLOUDY    50  26  39 NW24G31   29.63R
AKRON          FAIR      46  29  51 NW25G32   29.64R
BURLINGTON     FAIR      56  36  47 N20G30    29.63R
WRAY           NOT AVBL
YUMA           FAIR      48  18  29 NW15G26   29.62R
STERLING       NOT AVBL
HOLYOKE        FAIR      55  36  47 NW20G31   29.55R
FORT MORGAN    FAIR      49  22  33 NW30G38   29.62F
$$

COZ086-089-092>099-211000-
...SOUTHEAST COLORADO...

CITY           SKY/WX    TMP DP  RH WIND       PRES   REMARKS
PUEBLO         FAIR      61  37  41 W39G52    29.63R
LA JUNTA       FAIR      58  36  43 SW13      29.58R
LAMAR          FAIR      66  41  40 SW18      29.53R
SPRINGFIELD      N/A     56  45  66 S10       29.64F
$$



USA.gov is the U.S. government's official web portal to all federal, state and local government web resources and services.